Regional Weather Roundup
Issued by NWS Charleston, SC

Current Version | Previous Version | Graphics & Text | Print | Product List | Glossary On
Versions: 1 2 3 4 5 6 7 8 9 10 11 12 13 14 15 16 17 18 19 20 21 22 23 24 25 26 27 28 29 30 31 32 33 34 35 36 37 38 39 40 41 42 43 44 45 46 47 48 49 50
867
ASUS42 KCHS 240427
RWRCHS

Regional Weather Roundup
National Weather Service Charleston SC
1100 PM EST FRI FEB 23 2018

NOTE: "fair" indicates few or no clouds below 12,000 feet with no
significant weather and/or obstructions to visibility.

Not all stations are quality controlled. Use data with caution,
especially dewpoint observations.

SCZ027-030-031-034>040-042>050-240500-
...Southeast South Carolina...

CITY           SKY/WX    TMP DP  RH WIND       PRES   REMARKS
N Charleston   FAIR      64  63  96 S5        30.32S
Waterfront Prk   N/A     65  64  97 VRB2      30.18S
Mount Pleasant FAIR      61  61 100 CALM      30.32F
Johns Island   FOG       63  63 100 CALM      30.32F VSB 1/4
Pinopolis        N/A     64  63  94 VRB2      30.23F
Moncks Corner  FAIR      59  59 100 CALM      30.32S FOG
Summerville    FAIR      61  61 100 CALM      30.33S
Beaufort MCAS  FAIR      63  62  97 CALM      30.32S
Beaufort Arpt  FAIR      61  61 100 SE3       30.32S
Hilton Head Is FAIR      63  61  94 CALM      30.33S
Walterboro       N/A     61  61 100 CALM      30.32F FOG
Allendale      FAIR      64  63  94 CALM      30.30F

...Southern Midlands and Pee Dee...

CITY           SKY/WX    TMP DP  RH WIND       PRES   REMARKS
Georgetown     MOCLDY    63  63 100 S3        30.33F
Kingstree      FAIR      63  61  94 CALM      30.32S
Orangeburg     FAIR      64  61  90 S6        30.32S
Barnwell         N/A     66  64  94 CALM      30.31F
Aiken          FAIR      61  59  94 S5        30.33F
Manning        FAIR      61  50  67 MISG      30.32S
Columbia       FAIR      66  61  84 SW6       30.30S
Sumter         FAIR      65  61  86 S5        30.29F
Florence       FAIR      63  62  97 S6        30.31F
Myrtle Beach   MOCLDY    66  63  90 S10       30.33F
N Myrtle Beach FAIR      64  61  90 S6        30.32F

$$

GAZ063-065-086>088-099>101-113>116-118-119-134>141-150-240500-
...Southeast Georgia...

CITY           SKY/WX    TMP DP  RH WIND       PRES   REMARKS
Savannah Arpt  FAIR      65  64  97 CALM      30.32S
Hunter AAF     FAIR      65  62  90 SE3       30.29F
Fort Stewart   FAIR      63  61  94 CALM      30.29F FOG
Statesboro     FAIR      65  32  29 CALM      30.32S
Sylvania       FAIR      64  64  99 CALM      30.32F
Claxton        FAIR      63  63  97 CALM      30.31F

...CSRA, Central and far Southeast Georgia...

CITY           SKY/WX    TMP DP  RH WIND       PRES   REMARKS
Thomson        FAIR      65  58  80 SW7       30.33F
Augusta-Bush   FAIR      61  58  90 CALM      30.29F
Augusta-Daniel FAIR      67  59  75 E6        30.30F
Swainsboro     FAIR      66  63  88 SE5       30.30F
Vidalia        FAIR      64  64 100 SE3       30.30F
Eastman        FAIR      67  56  68 SE5       30.31S
Hazlehurst     FAIR      69  60  75 SE7       30.28F
Alma           FAIR      66  62  87 E3        30.30S
Waycross       FAIR      67  64  90 SE3       30.30S
Jesup          FAIR      64  61  88 CALM      30.31S
Baxley         FAIR      64  64 100 SE3       30.30S
Brunswick      FAIR      59  57  94 CALM      30.31F
Saint Simons   FAIR      66  64  93 SE6       30.30F

$$

SCZ027-028-034-036>038-045-046-048>050-GAZ119-141-240500-
...Lake and Supplemental Coastal Observations...

STATION/POSITION TIME  TEMP    WIND        PRES    WAVE   SWELL
                       AIR SEA DIR/SP/G            HT/PER HT/PER/DIR
                 (UTC) (F)     (DEG/KT/KT) (MB)    (FT/S) (FT/S/D)
Winyah Bay       0345   66     210/  3     1027.0S
Lake Murray      0420   65     180/  3/  6 1025.1F
ACE Basin NERRS  0345   62        CALM     1027.0S
Fort Pulaski     0400   65 63   CALM  /  1 1026.8
Sapelo Island    0400   65     120/  3     1026.0

$$

ANZ835-935-AMZ111-154-330-350-352-354-370-450-454-472-240500-
...C-MAN and Buoy Observations...

STATION/POSITION TIME  TEMP    WIND        PRES    WAVE   SWELL
                       AIR SEA DIR/SP/G            HT/PER HT/PER/DIR
                 (UTC) (F)     (DEG/KT/KT) (MB)    (FT/S) (FT/S/D)
Buoy 41004       0410   69 69  150/  6/  8 1026.5
Buoy 41008       0350   63 60  130/  6/  6 1026.1F   4/ 8   3/130/ 8
Folly Beach CMAN 0400   64     220/  2/  2 1027.3F
Capers Nearshore 0308   60 64  150/  6/ 10 1026.6F
Fripp Nearshore  0408   60 63   70/  2/  4 1025.4F


STATION/POSITION TIME  TEMP    WIND        PRES    WAVE   SWELL
                       AIR SEA DIR/SP/G            HT/PER HT/PER/DIR
                 (UTC) (F)     (DEG/KT/KT) (MB)    (FT/S) (FT/S/D)
5E St. Marys GA  0400      65                N/A     4/ 8   2/110/11
Frying Pan Buoy  0410   71 71  160/  8/ 10 1026.9
Buoy 41025       0410   72 73  220/ 14/ 16 1026.9
Cape Lookout NC  0400          180/  8/  9 1027.0F
Buoy 41002       0350   71 73  160/  8/ 12 1028.2F   5/ 9   5/110/ 9
Buoy 41010       NOT AVBL
St Augustine FL  0400   69 69  140/  7/  7 1026.2F


$$




USA.gov is the U.S. government's official web portal to all federal, state and local government web resources and services.